Miscellaneous Local Product
Issued by NWS Hastings, NE

Home | Current Version | Previous Version | Graphics & Text | Print | Product List | Glossary On
Versions: 1 2 3 4 5 6 7 8 9 10 11 12 13 14 15 16 17 18 19 20 21 22 23 24 25 26 27 28 29 30 31 32 33 34 35 36 37 38 39 40 41 42 43 44 45 46 47 48 49 50
000
AXUS43 KGID 091002
MISGRI

GID CWA HOURLY WEATHER ROUNDUP
NATIONAL WEATHER SERVICE HASTINGS NE
500 AM CDT WED JUL 09 2014

NOTE: "FAIR" INDICATES FEW OR NO CLOUDS BELOW 12,000 FEET WITH NO
SIGNIFICANT WEATHER AND/OR OBSTRUCTIONS TO VISIBILITY.

...SOUTH CENTRAL NEBRASKA...

CITY           SKY/WX    TMP DP  RH WIND       PRES   REMARKS
GRAND ISLAND   CLEAR     58  54  86 N5        30.07F
HASTINGS       PTCLDY    58  53  84 W3        30.08R
KEARNEY        PTCLDY    57  52  82 CALM      30.09S
ORD            CLEAR     51  49  92 CALM      30.07S
YORK           CLEAR     57  57 100 NW5       30.07S
AURORA         CLEAR     57  56  94 NW6       30.07S
HOLDREGE       CLEAR     59  53  79 CALM      30.08S
HEBRON         CLEAR     59  56  90 CALM      30.06S

...NEBRASKA PANHANDLE...

CITY           SKY/WX    TMP DP  RH WIND       PRES   REMARKS
CHADRON        CLEAR     57  50  77 N5        30.07F
ALLIANCE       CLEAR     54  48  80 E7        30.09F
SCOTTSBLUFF    CLEAR     60  51  72 E10       30.06F
SIDNEY         CLEAR     61  54  77 S10       30.09F

...WESTERN AND NORTH CENTRAL NEBRASKA...

CITY           SKY/WX    TMP DP  RH WIND       PRES   REMARKS
VALENTINE      PTCLDY    55  54  96 CALM      30.09S
AINSWORTH      PTCLDY    56  52  88 CALM      30.09S
ONEILL         CLEAR     55  51  85 W3        30.07S
BROKEN BOW     CLEAR     54  50  86 CALM      30.09S
IMPERIAL       CLEAR     59  53  80 SE8       30.09F
NORTH PLATTE   CLEAR     54  50  86 E3        30.09F
MCCOOK         CLEAR     60  54  80 E5        30.08F

...EASTERN NEBRASKA...

CITY           SKY/WX    TMP DP  RH WIND       PRES   REMARKS
NORFOLK        CLEAR     55  52  89 CALM      30.05R
SO SIOUX CITY  CLEAR     58  55  90 NW3       30.03R
TEKAMAH        CLEAR     57  55  93 SE3       30.02S
ALBION         CLEAR     53  50  91 CALM      30.07S
OMAHA EPPLEY   CLEAR     63  59  87 N3        30.03S
OFFUTT AFB     CLEAR     60  60 100 CALM      30.03R
MILLARD        CLEAR     62  58  90 CALM      30.03S
LINCOLN        CLEAR     60  56  86 N3        30.05S
NEBRASKA CITY  CLEAR     62  57  84 NW3       30.04R
BEATRICE       CLEAR     57  56  95 CALM      30.05S
FALLS CITY     CLEAR     61  59  93 W5        30.02F

...NORTHERN KANSAS...

CITY           SKY/WX    TMP DP  RH WIND       PRES   REMARKS
GOODLAND       PTCLDY    60  58  92 S7        30.12S
HILL CITY      CLEAR     60  54  80 CALM      30.08S
NORTON         SUNNY     59  50  72 SE3       30.08S
PHILLIPSBURG   CLEAR     59  54  82 CALM      30.08S
SMITH CENTER   CLEAR     61  55  82 SE5       30.08S
BELOIT         CLEAR     55  55 100 CALM      30.05S
HAYS           PTCLDY    63  54  72 SE5       30.08S
RUSSELL        MOCLDY    64  58  80 SE7       30.07R
CONCORDIA      CLEAR     61  59  93 CALM      30.06R
SALINA         CLEAR     66  60  81 CALM      30.06S
TOPEKA         CLEAR     63  61  93 CALM      30.03S



USA.gov is the U.S. government's official web portal to all federal, state and local government web resources and services.